When you browse on this site, cookies collect data to enhance your experience and personalize the content and advertising you see.
Visit our Privacy Policy to learn more. By continuing to use the site, you agree to this use of cookies and data.
  • In Hungary
  • List of Countries
  • For 7 days
  • Water Temperature
  • Satellite Maps
  • Weather Map
  • News
  • Weather Widgets
  • user-avatar
    Login

    Hourly Weather Hongjiang

    Today, 15 December, Saturday

    Time Temperature Precipitation Wind Pressure Humidity
    00:00 +24°C° 0 mm 0 mps 755 mmHg 95%
    01:00 +24°C° 0 mm 0 mps 756 mmHg 97%
    02:00 +24°C° 0.3 mm 0 mps 756 mmHg 97%
    03:00 +24°C° 0.3 mm 0 mps 756 mmHg 97%
    04:00 +23°C° 0.3 mm 0 mps 755 mmHg 98%
    05:00 +26°C° 0 mm 1 mps 756 mmHg 96%
    06:00 +26°C° 0 mm 1 mps 756 mmHg 94%
    07:00 +27°C° 0 mm 1 mps 756 mmHg 92%
    08:00 +28°C° 0.3 mm 1 mps 757 mmHg 88%
    09:00 +29°C° 0.3 mm 1 mps 757 mmHg 84%
    10:00 +30°C° 0.3 mm 2 mps 757 mmHg 80%
    11:00 +30°C° 0.5 mm 2 mps 756 mmHg 77%
    12:00 +31°C° 0.5 mm 2 mps 756 mmHg 73%
    13:00 +31°C° 0 mm 2 mps 755 mmHg 71%
    14:00 +31°C° 0.5 mm 2 mps 755 mmHg 74%
    15:00 +31°C° 0.5 mm 2 mps 755 mmHg 77%
    16:00 +30°C° 0.5 mm 1 mps 755 mmHg 79%
    17:00 +29°C° 0.3 mm 1 mps 755 mmHg 84%
    18:00 +28°C° 0.3 mm 1 mps 755 mmHg 90%
    19:00 +26°C° 0.3 mm 1 mps 756 mmHg 95%
    20:00 +24°C° 0 mm 0 mps 756 mmHg 95%
    21:00 +24°C° 0 mm 0 mps 756 mmHg 96%
    22:00 +24°C° 0 mm 0 mps 757 mmHg 97%
    23:00 +24°C° 0 mm 0 mps 757 mmHg 97%

    Tomorrow, 16 December, Sunday

    Time Temperature Precipitation Wind Pressure Humidity
    00:00 +23°C° 0 mm 0 mps 757 mmHg 97%
    01:00 +23°C° 0 mm 0 mps 756 mmHg 97%
    02:00 +23°C° 0 mm 0 mps 756 mmHg 97%
    03:00 +23°C° 0 mm 0 mps 756 mmHg 97%
    04:00 +23°C° 0 mm 0 mps 756 mmHg 98%
    05:00 +24°C° 0 mm 0 mps 756 mmHg 95%
    06:00 +24°C° 0 mm 0 mps 757 mmHg 93%
    07:00 +25°C° 0 mm 0 mps 757 mmHg 91%
    08:00 +27°C° 0 mm 0 mps 757 mmHg 80%
    09:00 +30°C° 0 mm 0 mps 757 mmHg 69%
    10:00 +32°C° 0 mm 0 mps 757 mmHg 59%
    11:00 +33°C° 1.2 mm 1 mps 756 mmHg 65%
    12:00 +33°C° 1.2 mm 1 mps 756 mmHg 72%
    13:00 +32°C° 1.2 mm 1 mps 755 mmHg 78%
    14:00 +31°C° 2.2 mm 1 mps 755 mmHg 83%
    15:00 +30°C° 2.2 mm 1 mps 755 mmHg 87%
    16:00 +29°C° 2.2 mm 1 mps 754 mmHg 91%
    17:00 +28°C° 0.8 mm 1 mps 755 mmHg 93%
    18:00 +27°C° 0.8 mm 1 mps 755 mmHg 94%
    19:00 +24°C° 0.8 mm 0 mps 756 mmHg 96%
    20:00 +24°C° 0 mm 0 mps 756 mmHg 96%
    21:00 +24°C° 0 mm 0 mps 757 mmHg 96%
    22:00 +24°C° 0 mm 0 mps 757 mmHg 96%
    23:00 +24°C° 0 mm 0 mps 757 mmHg 96%

    Day after tomorrow, 17 December, Monday

    Time Temperature Precipitation Wind Pressure Humidity
    00:00 +23°C° 0 mm 0 mps 756 mmHg 96%
    01:00 +23°C° 0 mm 0 mps 756 mmHg 96%
    02:00 +23°C° 0 mm 0 mps 756 mmHg 96%
    03:00 +23°C° 0 mm 0 mps 756 mmHg 96%
    04:00 +23°C° 0 mm 0 mps 756 mmHg 97%
    05:00 +23°C° 0 mm 0 mps 756 mmHg 95%
    06:00 +24°C° 0 mm 0 mps 757 mmHg 94%
    07:00 +24°C° 0 mm 0 mps 757 mmHg 93%
    08:00 +27°C° 0 mm 0 mps 757 mmHg 83%
    09:00 +29°C° 0 mm 0 mps 757 mmHg 73%
    10:00 +31°C° 0 mm 0 mps 758 mmHg 63%
    11:00 +31°C° 0.3 mm 0 mps 757 mmHg 64%
    12:00 +31°C° 0.3 mm 0 mps 756 mmHg 65%
    13:00 +33°C° 0.3 mm 1 mps 756 mmHg 67%
    14:00 +32°C° 1.6 mm 1 mps 755 mmHg 74%
    15:00 +31°C° 1.6 mm 1 mps 755 mmHg 81%
    16:00 +30°C° 1.6 mm 1 mps 755 mmHg 88%
    17:00 +27°C° 1.3 mm 0 mps 755 mmHg 90%
    18:00 +26°C° 1.3 mm 0 mps 756 mmHg 93%
    19:00 +24°C° 1.3 mm 0 mps 757 mmHg 95%
    20:00 +24°C° 0.4 mm 0 mps 757 mmHg 95%
    21:00 +24°C° 0.4 mm 0 mps 757 mmHg 96%
    22:00 +24°C° 0.4 mm 0 mps 758 mmHg 96%
    23:00 +24°C° 0.1 mm 0 mps 757 mmHg 96%

    18 December, Tuesday

    Time Temperature Precipitation Wind Pressure Humidity
    00:00 +24°C° 0.1 mm 0 mps 757 mmHg 96%
    01:00 +23°C° 0.1 mm 0 mps 756 mmHg 97%
    02:00 +23°C° 0 mm 0 mps 756 mmHg 96%
    03:00 +23°C° 0 mm 0 mps 755 mmHg 96%
    04:00 +23°C° 0 mm 0 mps 755 mmHg 96%
    05:00 +23°C° 0 mm 0 mps 756 mmHg 96%
    06:00 +24°C° 0 mm 0 mps 756 mmHg 95%
    07:00 +24°C° 0 mm 0 mps 757 mmHg 94%
    08:00 +26°C° 0 mm 0 mps 757 mmHg 83%
    09:00 +29°C° 0 mm 0 mps 757 mmHg 72%
    10:00 +31°C° 0 mm 0 mps 757 mmHg 61%
    11:00 +34°C° 0.1 mm 1 mps 756 mmHg 57%
    12:00 +35°C° 0.1 mm 1 mps 756 mmHg 54%
    13:00 +35°C° 0.1 mm 1 mps 755 mmHg 50%
    14:00 +35°C° 0.2 mm 1 mps 755 mmHg 54%
    15:00 +34°C° 0.2 mm 1 mps 754 mmHg 59%
    16:00 +33°C° 0.2 mm 1 mps 754 mmHg 64%
    17:00 +31°C° 0.2 mm 1 mps 755 mmHg 72%
    18:00 +29°C° 0.2 mm 1 mps 755 mmHg 80%
    19:00 +25°C° 0.2 mm 0 mps 756 mmHg 88%
    20:00 +25°C° 0 mm 0 mps 757 mmHg 89%
    21:00 +24°C° 0 mm 0 mps 757 mmHg 91%
    22:00 +24°C° 0 mm 0 mps 757 mmHg 92%
    23:00 +24°C° 0 mm 0 mps 757 mmHg 93%

    19 December, Wednesday

    Time Temperature Precipitation Wind Pressure Humidity
    00:00 +24°C° 0 mm 0 mps 756 mmHg 93%
    01:00 +24°C° 0 mm 0 mps 756 mmHg 94%
    02:00 +23°C° 0 mm 0 mps 756 mmHg 94%
    03:00 +23°C° 0 mm 0 mps 756 mmHg 94%
    04:00 +23°C° 0 mm 0 mps 756 mmHg 95%
    05:00 +24°C° 0 mm 0 mps 756 mmHg 93%
    06:00 +25°C° 0 mm 0 mps 757 mmHg 91%
    07:00 +25°C° 0 mm 0 mps 757 mmHg 88%
    08:00 +27°C° 0 mm 0 mps 757 mmHg 77%
    09:00 +32°C° 0 mm 1 mps 757 mmHg 66%
    10:00 +34°C° 0 mm 1 mps 757 mmHg 55%
    11:00 +35°C° 0 mm 1 mps 756 mmHg 51%
    12:00 +36°C° 0 mm 1 mps 755 mmHg 48%
    13:00 +37°C° 0 mm 1 mps 754 mmHg 44%
    14:00 +35°C° 0.3 mm 1 mps 754 mmHg 53%
    15:00 +33°C° 0.3 mm 1 mps 754 mmHg 62%
    16:00 +31°C° 0.3 mm 1 mps 754 mmHg 71%
    17:00 +30°C° 1.1 mm 1 mps 754 mmHg 79%
    18:00 +28°C° 1.1 mm 1 mps 755 mmHg 86%
    19:00 +25°C° 1.1 mm 0 mps 756 mmHg 94%
    20:00 +25°C° 0.1 mm 0 mps 756 mmHg 94%
    21:00 +25°C° 0.1 mm 0 mps 757 mmHg 95%
    22:00 +24°C° 0.1 mm 0 mps 757 mmHg 95%
    23:00 +24°C° 0.3 mm 0 mps 757 mmHg 95%

    20 December, Thursday

    Time Temperature Precipitation Wind Pressure Humidity
    00:00 +24°C° 0.3 mm 0 mps 756 mmHg 96%
    01:00 +24°C° 0.3 mm 0 mps 756 mmHg 96%
    02:00 +24°C° 0.1 mm 0 mps 755 mmHg 97%
    03:00 +24°C° 0.1 mm 0 mps 755 mmHg 97%
    04:00 +23°C° 0.1 mm 0 mps 755 mmHg 98%
    05:00 +24°C° 0 mm 0 mps 756 mmHg 96%
    06:00 +24°C° 0 mm 0 mps 756 mmHg 95%
    07:00 +25°C° 0 mm 0 mps 757 mmHg 93%
    08:00 +27°C° 0 mm 0 mps 756 mmHg 81%
    09:00 +32°C° 0 mm 1 mps 756 mmHg 68%
    10:00 +34°C° 0 mm 1 mps 756 mmHg 56%
    11:00 +35°C° 0 mm 1 mps 755 mmHg 52%
    12:00 +36°C° 0 mm 1 mps 754 mmHg 47%
    13:00 +37°C° 0 mm 1 mps 754 mmHg 43%
    14:00 +35°C° 0.1 mm 1 mps 753 mmHg 51%
    15:00 +34°C° 0.1 mm 1 mps 753 mmHg 59%
    16:00 +32°C° 0.1 mm 1 mps 753 mmHg 67%
    17:00 +30°C° 0.7 mm 1 mps 753 mmHg 76%
    18:00 +29°C° 0.7 mm 1 mps 754 mmHg 85%
    19:00 +25°C° 0.7 mm 0 mps 755 mmHg 93%
    20:00 +25°C° 0.3 mm 0 mps 755 mmHg 94%
    21:00 +25°C° 0.3 mm 0 mps 755 mmHg 95%
    22:00 +24°C° 0.3 mm 0 mps 756 mmHg 96%
    23:00 +24°C° 0 mm 0 mps 755 mmHg 96%
    Show more